{"data":{"norad_id":60026,"epoch":"2026-09-21T07:52:12.322560Z","epoch_age_seconds":106054,"freshness":"FRESH","line1":"1 60026U 24111L   26264.32792040 -.00000330  00000+0  13610-5 0  9992","line2":"2 60026  53.1605 245.6973 0001405  86.6117 273.5046 15.34386921129002","mean_motion":15.34386921,"eccentricity":0.0001405,"inclination_deg":53.1605,"raan_deg":245.6973,"arg_perigee_deg":86.6117,"mean_anomaly_deg":273.5046,"bstar":1.361e-6,"rev_number":12900,"period_min":93.848558032645,"perigee_km":461.78097051199,"apogee_km":463.70325754303,"semimajor_km":6840.8791140275,"source":"CELESTRAK","updated_at":"2026-09-22T09:00:49.139205Z"}}